FW6918 Weather Reports


time (UTC)temp
F
wind
direction
speed
knots
gust
knots
rain 1hr
in
rain 24hr
in
rain mn
in
humidity
%
barometer
mb
20260906223042 63 37 4.3 7.0 0.00 0.04 0.04 88 1009.4
20260906221542 63 37 2.6 6.1 0.00 0.04 0.04 89 1009.2
20260906220054 62 34 4.3 9.6 0.00 0.04 0.04 90 1008.6
20260906214501 62 13 5.2 8.7 0.00 0.04 0.04 91 1008.6
20260906213018 61 360 5.2 12.2 0.01 0.04 0.04 93 1008.5
20260906204512 58 63 14.8 22.6 0.04 0.04 0.04 94 1007.9
20260906203026 59 76 7.8 13.0 0.03 0.03 0.03 94 1010.0
20260906201534 59 32 7.0 12.2 0.01 0.01 0.01 93 1010.6
20260906200049 59 360 7.0 11.3 0.00 0.00 0.00 93 1010.7
20260906194559 59 360 3.5 8.7 0.00 0.00 0.00 93 1010.0
20260906194507 59 355 3.5 8.7 0.00 0.00 0.00 93 1010.0
20260906193015 59 360 5.2 9.6 0.00 0.00 0.00 93 1009.8
20260906191531 59 9 7.0 10.4 0.00 0.00 0.00 93 1009.9
20260906183041 59 24 8.7 13.0 0.00 0.00 0.00 95 1010.1
20260906181600 58 28 8.7 13.0 0.00 0.00 0.00 95 1010.0
20260906143050 57 13 5.2 9.6 0.00 0.00 0.00 97 1011.8
20260906141556 57 32 6.1 10.4 0.00 0.00 0.00 97 1011.6
20260906141503 57 9 6.1 10.4 0.00 0.00 0.00 96 1011.6
20260906134552 57 13 5.2 10.4 0.00 0.00 0.00 97 1011.4
20260906133010 57 327 7.0 10.4 0.00 0.00 0.00 96 1011.9
20260906131520 57 355 5.2 7.8 0.00 0.00 0.00 96 1011.8
20260906130035 57 319 4.3 8.7 0.00 0.00 0.00 96 1011.8
20260906124550 57 360 7.0 9.6 0.00 0.00 0.00 96 1011.8
20260906123055 56 360 5.2 7.8 0.00 0.00 0.00 96 1012.1
20260906121515 56 9 4.3 8.7 0.00 0.00 0.00 96 1012.3
20260906120025 56 348 5.2 7.8 0.00 0.00 0.00 95 1012.4
20260906041600 61 25 9.6 13.9 0.00 0.00 0.00 85 1012.2
20260906041508 61 45 9.6 13.9 0.00 0.00 0.00 85 1012.2
20260906040026 62 5 7.0 11.3 0.00 0.00 0.00 84 1012.2
20260905233037 76 31 6.1 10.4 0.00 0.00 0.00 53 1008.7
20260905231547 76 19 6.1 10.4 0.00 0.00 0.00 53 1008.7
20260905230106 76 360 7.8 11.3 0.00 0.00 0.00 52 1008.8
20260905224615 76 360 4.3 9.6 0.00 0.00 0.00 52 1009.1